{"data":{"norad_id":66906,"intl_designator":"1998-067XS","name":"DUPLEX","alt_names":[],"object_type":"PAYLOAD","status":"ACTIVE","operator":null,"country":"US","launch_date":"1998-11-20","launch_site_code":"TYMSC","launch_vehicle":null,"mission":null,"orbit_class":"UNKNOWN","rcs_meters":null,"size_class":null,"mass_kg":null,"dimensions":null,"purposes":["station"],"wikipedia_slug":null,"has_3d_model":false,"image_url":null,"decayed_at":null,"tle_current":{"epoch":"2026-09-20T03:02:57.470784Z","epoch_age_seconds":46615,"freshness":"FRESH","line1":"1 66906U 98067XS  26263.12705406  .00048713  00000+0  39686-3 0  9998","line2":"2 66906  51.6253 167.4684 0004483 162.7348 197.3803 15.70127789 45532","mean_motion":15.70127789,"eccentricity":0.0004483,"inclination_deg":51.6253,"raan_deg":167.4684,"arg_perigee_deg":162.7348,"mean_anomaly_deg":197.3803,"bstar":0.00039686,"rev_number":4553,"period_min":91.712280369047,"perigee_km":355.51141485838,"apogee_km":361.5515118026,"semimajor_km":6736.6684633305,"source":"CELESTRAK","updated_at":"2026-09-20T09:00:28.694653Z"}}}